FW2695 Weather Reports


Display with metric or nautical units.
time (UTC)temp
F
wind
direction
speed
MPH
gust
MPH
rain 1hr
in
rain 24hr
in
rain mn
in
humidity
%
barometer
mb
20260504204605 78 326 3.0 15.0 0.00 0.00 0.00 36 1004.2
20260504203103 79 49 2.0 15.0 0.00 0.00 0.00 34 1004.2
20260504201559 80 311 1.0 14.0 0.00 0.00 0.00 35 1004.1
20260504200059 80 295 2.0 8.0 0.00 0.00 0.00 32 1004.2
20260504194600 81 43 4.0 13.0 0.00 0.00 0.00 32 1004.1
20260504193113 82 49 4.0 12.0 0.00 0.00 0.00 31 1003.9
20260504191556 83 311 2.0 9.0 0.00 0.00 0.00 33 1003.8
20260504190106 82 18 3.0 9.0 0.00 0.00 0.00 30 1003.7
20260504184554 82 68 2.0 14.0 0.00 0.00 0.00 28 1003.8
20260504183059 81 304 5.0 14.0 0.00 0.00 0.00 28 1003.6
20260504181551 82 129 4.0 11.0 0.00 0.00 0.00 26 1003.7
20260504180127 81 285 5.0 12.0 0.00 0.00 0.00 25 1003.8
20260504174547 80 284 4.0 9.0 0.00 0.00 0.00 29 1003.8
20260504173046 80 257 1.0 9.0 0.00 0.00 0.00 29 1004.1
20260504171548 79 271 3.0 10.0 0.00 0.00 0.00 28 1004.1
20260504081558 55 209 0.0 1.0 0.00 0.00 0.00 60 1005.6
20260504050023 60 70 0.0 1.0 0.00 0.00 0.00 51 1008.5
20260504044533 60 72 0.0 2.0 0.00 0.00 0.00 52 1008.6
20260504043030 60 88 1.0 2.0 0.00 0.00 0.00 52 1008.7
20260504041518 61 94 0.0 2.0 0.00 0.00 0.00 50 1009.1
20260504040021 62 107 0.0 1.0 0.00 0.00 0.00 49 1009.4
20260504034516 62 122 0.0 2.0 0.00 0.00 0.00 48 1009.5
20260504033013 61 200 0.0 3.0 0.00 0.00 0.00 50 1009.9
20260504031517 63 79 0.0 1.0 0.00 0.00 0.00 47 1009.8
20260504030014 65 73 0.0 1.0 0.00 0.00 0.00 45 1009.8
20260504024512 65 72 0.0 2.0 0.00 0.00 0.00 44 1009.6
20260504023011 65 70 1.0 2.0 0.00 0.00 0.00 43 1009.7
20260504021513 67 172 0.0 3.0 0.00 0.00 0.00 44 1009.9
20260504020010 67 53 2.0 5.0 0.00 0.00 0.00 42 1010.0
20260504014509 68 44 2.0 4.0 0.00 0.00 0.00 40 1009.8
20260504013011 69 41 3.0 5.0 0.00 0.00 0.00 40 1009.9
20260504011507 69 54 2.0 4.0 0.00 0.00 0.00 40 1009.9
20260504010006 70 42 3.0 5.0 0.00 0.00 0.00 38 1010.0
20260504004515 71 37 3.0 6.0 0.00 0.00 0.00 36 1010.1
20260504003005 72 27 3.0 8.0 0.00 0.00 0.00 36 1010.2
20260504001504 73 81 2.0 4.0 0.00 0.00 0.00 32 1010.5
20260504000002 73 46 0.0 2.0 0.00 0.00 0.00 30 1010.7
20260503234600 73 49 1.0 2.0 0.00 0.00 0.00 32 1011.0
20260503233059 73 96 1.0 9.0 0.00 0.00 0.00 32 1011.1
20260503231604 73 91 5.0 10.0 0.00 0.00 0.00 32 1011.1
20260503230116 74 86 3.0 7.0 0.00 0.00 0.00 32 1011.1
20260503224603 75 44 1.0 4.0 0.00 0.00 0.00 30 1010.8
20260503223055 74 281 1.0 6.0 0.00 0.00 0.00 30 1011.3
20260503221553 74 32 2.0 7.0 0.00 0.00 0.00 33 1011.3
20260503220052 73 40 3.0 10.0 0.00 0.00 0.00 32 1011.4
20260503214550 74 96 2.0 9.0 0.00 0.00 0.00 33 1011.4
20260503213052 75 95 0.0 6.0 0.00 0.00 0.00 31 1011.6
20260503211605 74 77 6.0 10.0 0.00 0.00 0.00 32 1011.7
20260503210044 74 198 1.0 6.0 0.00 0.00 0.00 33 1012.1